This demonstration page uses our WeatherBlox Daily Observations layout. Learn more.

Left ArrowRight Arrow

39.95238, -75.16362

Hourly Observations for June 14, 2022

Temp ( °F °C ) Dew Point ( °F °C ) Humidity (%) Winds ( mph kmh ) Pressure ( in mb ) Visibility ( mi km ) Precip ( " mm )
12:54 am 00:54 Cloudy 79 26.1 71 21.7 77 77 N 8 13 29.91 1013 10 16 0.00 0.00
1:54 am 01:54 Mostly Cloudy 77 25 62 16.7 60 60 NE 8 13 29.90 1012 10 16 0.00 0.00
2:54 am 02:54 Cloudy 76 24.4 61 16.1 60 60 ENE 7 11 29.90 1013 10 16 0.00 0.00
3:54 am 03:54 Cloudy 76 24.4 54 12.2 47 47 NE 9 15 29.90 1013 10 16 0.00 0.00
4:54 am 04:54 Cloudy 73 22.8 54 12.2 51 51 ENE 6 9 29.88 1012 10 16 0.00 0.00
5:54 am 05:54 Cloudy 73 22.8 50 10 44 44 NE 8 13 29.89 1012 10 16 0.00 0.00
6:54 am 06:54 Cloudy 72 22.2 51 10.6 48 48 ENE 6 9 29.91 1013 10 16 0.00 0.00
7:40 am 07:40 Cloudy with Thunderstorms 73 22.8 51 10.6 46 46 NNE 6 9 29.93 1013 10 16 0.00 0.00
7:47 am 07:47 Windy with Storms Likely 74 23.3 51 10.6 45 45 W 30 48 30.00 1016 8 13 0.00 0.00
7:50 am 07:50 Cloudy with Thunderstorms 73 23 54 12 50 50 W 20 31 29.96 1014 4 6 0.00 0.00
8:01 am 08:01 Cloudy with Strong Thunderstorms 68 20 56 13.3 65 65 N 7 11 29.97 1015 4 6 0.05 1.27
8:19 am 08:19 Cloudy with Thunderstorms 65 18.3 58 14.4 78 78 E 8 13 29.92 1013 6 10 0.09 2.29
8:29 am 08:29 Cloudy with Light Rain 65 18.3 58 14.4 78 78 E 6 9 29.91 1013 7 11 0.11 2.79
8:54 am 08:54 Cloudy with Light Rain 66 18.9 57 13.9 73 73 ENE 13 20 29.88 1012 10 16 0.13 3.30
9:54 am 09:54 Cloudy 69 20.6 59 15 70 70 NE 5 7 29.93 1014 10 16 0.00 0.00
10:54 am 10:54 Mostly Cloudy 72 22.2 58 14.4 61 61 ENE 8 13 29.93 1014 10 16 0.00 0.00
11:54 am 11:54 Mostly Cloudy 74 23.3 59 15 60 60 E 9 15 29.93 1014 10 16 0.00 0.00
12:54 pm 12:54 Mostly Cloudy 77 25 59 15 54 54 E 6 9 29.92 1013 10 16 0.00 0.00
1:54 pm 13:54 Mostly Cloudy 79 26.1 58 14.4 49 49 VRB 5 7 29.91 1013 10 16 0.00 0.00
2:54 pm 14:54 Mostly Cloudy 81 27.2 58 14.4 45 45 ESE 7 11 29.91 1013 10 16 0.00 0.00
3:54 pm 15:54 Mostly Cloudy 83 28.3 57 13.9 41 41 Calm 29.89 1012 10 16 0.00 0.00
4:54 pm 16:54 Partly Cloudy 84 28.9 59 15 43 43 NE 5 7 29.89 1012 10 16 0.00 0.00
5:54 pm 17:54 Partly Cloudy 84 28.9 57 13.9 40 40 NW 6 9 29.88 1012 10 16 0.00 0.00
6:54 pm 18:54 Partly Cloudy 83 28.3 56 13.3 40 40 N 10 17 29.88 1012 10 16 0.00 0.00
7:54 pm 19:54 Partly Cloudy 82 27.8 56 13.3 41 41 NNW 7 11 29.89 1012 10 16 0.00 0.00
8:54 pm 20:54 Mostly Clear 82 27.8 58 14.4 44 44 WNW 9 15 29.92 1013 10 16 0.00 0.00
9:54 pm 21:54 Mostly Clear 81 27.2 58 14.4 45 45 WNW 3 6 29.93 1014 10 16 0.00 0.00
10:54 pm 22:54 Clear 77 25 61 16.1 58 58 SSE 6 9 29.96 1015 10 16 0.00 0.00
11:54 pm 23:54 Clear 73 22.8 63 17.2 71 71 SSW 9 15 29.98 1015 10 16 0.00 0.00

Powered by AerisWeather